This is the latest recevied weather packets stored in our database for station/object KW6V-15. If no packets are shown the sender has not sent any weather packets the latest 10 day(s).
| Time | Temp. | Humidity | Pressure | Rain* | Wind** | Luminosity | Snow |
|---|---|---|---|---|---|---|---|
| 1777705227 | 11.11° C | 90% | 1013.5 hPa | 0 mm | - | - | - |
| 1777703435 | 11.11° C | 90% | 1013.5 hPa | 0 mm | - | - | - |
| 1777701655 | 11.11° C | 90% | 1013.9 hPa | 0 mm | - | - | - |
| 1777699836 | 11.11° C | 89% | 1014 hPa | 0 mm | - | - | - |
| 1777698057 | 11.11° C | 89% | 1014.1 hPa | 0 mm | - | - | - |
| 1777696355 | 11.11° C | 89% | 1013.9 hPa | 0 mm | - | - | - |
| 1777694430 | 11.67° C | 88% | 1013.4 hPa | 0 mm | - | - | - |
| 1777692611 | 11.67° C | 87% | 1013.4 hPa | 0 mm | - | - | - |
| 1777690858 | 12.22° C | 86% | 1013.4 hPa | 0 mm | - | - | - |
| 1777689020 | 12.22° C | 85% | 1013.3 hPa | 0 mm | - | - | - |
| 1777687230 | 12.78° C | 84% | 1013.5 hPa | 0 mm | - | - | - |
| 1777685444 | 13.89° C | 83% | 1013.6 hPa | 0 mm | - | - | - |
| 1777683689 | 13.89° C | 81% | 1013.6 hPa | 0 mm | - | - | - |
| 1777681837 | 15.56° C | 78% | 1013.7 hPa | 0 mm | - | - | - |
| 1777680062 | 16.67° C | 76% | 1013.7 hPa | 0 mm | - | - | - |
| 1777678224 | 17.78° C | 74% | 1013.8 hPa | 0 mm | - | - | - |
| 1777676421 | 17.78° C | 74% | 1013.9 hPa | 0 mm | - | - | - |
| 1777674629 | 17.78° C | 74% | 1014.2 hPa | 0 mm | - | - | - |
| 1777672834 | 17.78° C | 73% | 1014.5 hPa | 0 mm | - | - | - |
| 1777671088 | 18.33° C | 72% | 1014.7 hPa | 0 mm | - | - | - |
| 1777669283 | 18.89° C | 73% | 1014.7 hPa | 0 mm | - | - | - |
| 1777667436 | 17.22° C | 73% | 1015 hPa | 0 mm | - | - | - |
| 1777665621 | 17.22° C | 73% | 1015.2 hPa | 0 mm | - | - | - |
| 1777663855 | 17.78° C | 74% | 1015.3 hPa | 0 mm | - | - | - |
| 1777662093 | 17.78° C | 73% | 1015.4 hPa | 0 mm | - | - | - |
* Rain latest hour (hover to see other rain measurements)
** Current wind speed in m/s (hover to see current wind gust speed)